GW6132 Weather Reports


time (UTC)temp
C
wind
direction
speed
KPH
gust
KPH
rain 1hr
cm
rain 24hr
cm
rain mn
cm
humidity
%
barometer
mb
20260505140226 27 125 4.8 8.0 0.00 0.00 0.00 84 1012.0
20260505130223 23 171 1.6 4.8 0.00 0.00 0.00 92 1012.0
20260505124724 23 189 1.6 4.8 0.00 0.00 0.00 93 1012.0
20260505124223 23 183 1.6 3.2 0.00 0.00 0.00 93 1012.0
20260505123722 23 174 3.2 6.4 0.00 0.00 0.00 93 1012.0
20260505123224 23 158 3.2 6.4 0.00 0.00 0.00 93 1012.0
20260505122724 23 200 4.8 8.0 0.00 0.00 0.00 93 1012.0
20260505122224 23 144 3.2 8.0 0.00 0.00 0.00 93 1012.0
20260505121723 23 150 1.6 4.8 0.00 0.00 0.00 94 1012.0
20260505121222 23 133 3.2 4.8 0.00 0.00 0.00 94 1012.0
20260505120723 23 126 3.2 4.8 0.00 0.00 0.00 94 1012.0
20260505120223 23 115 1.6 4.8 0.00 0.00 0.00 93 1012.0
20260505115723 23 98 1.6 4.8 0.00 0.00 0.00 93 1012.0
20260505115223 23 143 3.2 4.8 0.00 0.00 0.00 93 1012.0
20260505114726 23 54 3.2 4.8 0.00 0.00 0.00 92 1012.0
20260505114225 23 123 1.6 4.8 0.00 0.00 0.00 92 1012.0
20260505113723 23 107 1.6 4.8 0.00 0.00 0.00 92 1012.0
20260505113223 23 146 3.2 4.8 0.00 0.00 0.00 92 1012.0
20260505112722 23 131 3.2 4.8 0.00 0.00 0.00 92 1012.0
20260505112222 23 123 0.0 3.2 0.00 0.00 0.00 93 1012.0
20260505111722 23 210 1.6 3.2 0.00 0.00 0.00 93 1012.0
20260505111223 23 141 0.0 3.2 0.00 0.00 0.00 94 1012.0
20260505110723 23 11 0.0 0.0 0.00 0.00 0.00 94 1012.0
20260505110223 23 26 0.0 0.0 0.00 0.00 0.00 94 1012.0
20260505101723 24 128 3.2 3.2 0.00 0.00 0.00 94 1011.0
20260505101222 24 144 1.6 3.2 0.00 0.00 0.00 94 1011.0
20260505100723 24 283 1.6 3.2 0.00 0.00 0.00 94 1011.0
20260505100223 24 137 1.6 3.2 0.00 0.00 0.00 94 1011.0
20260505095722 24 215 3.2 6.4 0.00 0.00 0.00 94 1011.0
20260505095222 24 161 1.6 4.8 0.00 0.00 0.00 93 1011.0
20260505094723 24 205 1.6 3.2 0.00 0.00 0.00 93 1011.0
20260505094222 24 149 1.6 4.8 0.00 0.00 0.00 93 1011.0
20260505093722 24 154 3.2 6.4 0.00 0.00 0.00 93 1011.0
20260505093226 24 166 3.2 4.8 0.00 0.00 0.00 93 1011.0
20260505092724 24 182 3.2 4.8 0.00 0.00 0.00 93 1011.0
20260505092222 24 210 3.2 8.0 0.00 0.00 0.00 92 1012.0
20260505090724 25 74 4.8 8.0 0.00 0.00 0.00 92 1012.0
20260505090228 25 126 3.2 6.4 0.00 0.00 0.00 92 1012.0
20260505085723 24 78 3.2 6.4 0.00 0.00 0.00 92 1012.0
20260505085223 24 190 3.2 6.4 0.00 0.00 0.00 92 1012.0
20260505084723 24 91 1.6 3.2 0.00 0.00 0.00 92 1012.0
20260505084223 25 224 1.6 4.8 0.00 0.00 0.00 92 1012.0
20260505083723 25 174 3.2 6.4 0.00 0.00 0.00 92 1012.0
20260505083223 25 110 1.6 4.8 0.00 0.00 0.00 92 1012.0
20260505082723 25 138 3.2 6.4 0.00 0.00 0.00 92 1012.0
20260505082222 25 139 1.6 4.8 0.00 0.00 0.00 92 1012.0
20260505081722 25 228 1.6 4.8 0.00 0.00 0.00 91 1012.0
20260505081223 25 189 1.6 6.4 0.00 0.00 0.00 91 1012.0
20260505080723 25 91 1.6 4.8 0.00 0.00 0.00 91 1012.0
20260505080222 25 170 3.2 4.8 0.00 0.00 0.00 91 1012.0
20260505075723 25 298 1.6 3.2 0.00 0.00 0.00 90 1012.0
20260505075222 25 123 1.6 3.2 0.00 0.00 0.00 90 1012.0
20260505074722 25 107 0.0 1.6 0.00 0.00 0.00 90 1012.0
20260505074222 25 281 0.0 1.6 0.00 0.00 0.00 90 1012.0
20260505073722 25 34 0.0 1.6 0.00 0.00 0.00 89 1012.0
20260505073223 25 113 1.6 3.2 0.00 0.00 0.00 89 1012.0
20260505072722 25 181 1.6 3.2 0.00 0.00 0.00 89 1012.0
20260505072223 25 266 3.2 4.8 0.00 0.00 0.00 89 1012.0
20260505071723 25 108 1.6 4.8 0.00 0.00 0.00 89 1012.0
20260505071222 25 116 1.6 3.2 0.00 0.00 0.00 88 1012.0
20260505070724 25 84 1.6 3.2 0.00 0.00 0.00 88 1012.0
20260505070222 25 159 1.6 4.8 0.00 0.00 0.00 88 1012.0
20260505065722 25 163 1.6 3.2 0.00 0.00 0.00 88 1012.0
20260505065222 25 231 1.6 3.2 0.00 0.00 0.00 87 1012.0
20260505064722 26 136 1.6 4.8 0.00 0.00 0.00 87 1012.0
20260505064222 26 240 1.6 4.8 0.00 0.00 0.00 86 1012.0
20260505063722 26 120 1.6 3.2 0.00 0.00 0.00 86 1012.0
20260505063222 26 154 3.2 4.8 0.00 0.00 0.00 86 1013.0
20260505062722 26 172 1.6 6.4 0.00 0.00 0.00 86 1013.0
20260505062223 26 130 1.6 3.2 0.00 0.00 0.00 86 1013.0
20260505061722 26 141 1.6 4.8 0.00 0.00 0.00 85 1013.0
20260505061222 26 102 0.0 3.2 0.00 0.00 0.00 85 1013.0
20260505060722 26 81 1.6 3.2 0.00 0.00 0.00 84 1013.0
20260505060222 26 152 1.6 4.8 0.00 0.00 0.00 84 1013.0
20260505055722 26 131 1.6 4.8 0.00 0.00 0.03 84 1013.0
20260505055222 26 163 1.6 3.2 0.00 0.00 0.03 83 1013.0
20260505054722 26 145 0.0 1.6 0.00 0.00 0.03 83 1013.0
20260505054222 26 17 0.0 1.6 0.00 0.00 0.03 83 1013.0
20260505053722 26 20 1.6 3.2 0.00 0.00 0.03 83 1013.0
20260505053222 26 112 1.6 3.2 0.00 0.00 0.03 83 1013.0
20260505052722 26 99 1.6 3.2 0.00 0.00 0.03 83 1013.0
20260505052223 26 94 0.0 0.0 0.00 0.00 0.03 83 1013.0
20260505051722 26 337 0.0 1.6 0.00 0.00 0.03 83 1013.0
20260505051222 26 359 0.0 1.6 0.00 0.00 0.03 83 1013.0
20260505050723 26 27 0.0 0.0 0.00 0.00 0.03 83 1013.0
20260505050222 26 302 0.0 1.6 0.00 0.00 0.03 83 1014.0
20260505041722 27 149 1.6 4.8 0.00 0.00 0.03 80 1013.0
20260505041222 27 194 0.0 3.2 0.00 0.00 0.03 80 1013.0
20260505040722 27 342 0.0 0.0 0.00 0.00 0.03 79 1013.0
20260505040222 27 351 0.0 0.0 0.00 0.00 0.03 80 1013.0
20260505035722 27 354 0.0 0.0 0.00 0.00 0.03 80 1013.0
20260505035222 27 6 0.0 1.6 0.00 0.00 0.03 79 1013.0
20260505034722 27 123 1.6 3.2 0.00 0.00 0.03 79 1013.0
20260505034222 27 63 0.0 1.6 0.00 0.00 0.03 79 1013.0
20260505033723 27 224 0.0 3.2 0.00 0.00 0.03 79 1013.0
20260505033222 27 77 1.6 3.2 0.00 0.00 0.03 79 1013.0
20260505032723 27 122 1.6 4.8 0.00 0.00 0.03 79 1013.0
20260505032222 27 160 3.2 4.8 0.00 0.00 0.03 78 1013.0
20260505031722 27 164 3.2 6.4 0.00 0.00 0.03 77 1013.0
20260505031223 28 49 3.2 4.8 0.00 0.00 0.03 77 1013.0
20260505030722 28 94 3.2 4.8 0.00 0.00 0.03 76 1013.0
20260505030222 28 125 3.2 4.8 0.00 0.00 0.03 75 1013.0
20260505025722 28 137 3.2 4.8 0.00 0.00 0.03 75 1013.0
20260505025225 28 113 3.2 4.8 0.00 0.00 0.03 75 1013.0
20260505024723 28 96 1.6 3.2 0.00 0.00 0.03 75 1013.0
20260505024222 28 95 1.6 3.2 0.00 0.00 0.03 75 1013.0
20260505023722 28 89 1.6 4.8 0.00 0.00 0.03 75 1013.0
20260505023223 28 92 3.2 4.8 0.00 0.00 0.03 74 1013.0
20260505022722 28 119 3.2 4.8 0.00 0.00 0.03 74 1013.0
20260505022222 28 71 1.6 4.8 0.00 0.00 0.03 74 1012.0
20260505021723 28 52 3.2 6.4 0.00 0.00 0.03 73 1012.0
20260505021223 28 108 3.2 6.4 0.00 0.00 0.03 72 1012.0
20260505020725 28 124 3.2 6.4 0.00 0.00 0.03 71 1012.0
20260505020224 29 120 3.2 4.8 0.00 0.00 0.03 71 1012.0
20260505015722 29 106 1.6 3.2 0.00 0.00 0.03 70 1012.0
20260505015222 29 145 3.2 4.8 0.00 0.00 0.03 68 1012.0
20260505014723 29 141 4.8 6.4 0.00 0.00 0.03 68 1012.0
20260505014222 28 171 3.2 4.8 0.00 0.00 0.03 70 1012.0
20260505013723 29 191 3.2 4.8 0.00 0.00 0.03 70 1012.0
20260505013222 29 189 0.0 3.2 0.00 0.00 0.03 70 1012.0
20260505012722 29 276 0.0 1.6 0.00 0.00 0.03 70 1012.0
20260505012222 29 290 1.6 3.2 0.00 0.00 0.03 70 1012.0
20260505011722 29 223 3.2 3.2 0.00 0.00 0.03 70 1012.0
20260505011222 29 211 1.6 4.8 0.00 0.00 0.03 69 1012.0
20260505010722 30 262 0.0 3.2 0.00 0.00 0.03 69 1012.0
20260505010222 30 117 1.6 4.8 0.00 0.00 0.03 69 1012.0
20260505005722 30 163 3.2 6.4 0.00 0.00 0.03 68 1012.0
20260505005222 30 137 3.2 6.4 0.00 0.00 0.03 68 1012.0
20260505004722 30 64 0.0 3.2 0.00 0.00 0.03 66 1012.0
20260505004222 30 221 1.6 3.2 0.00 0.00 0.03 65 1012.0
20260505003722 30 229 3.2 3.2 0.00 0.00 0.03 65 1012.0
20260505003222 30 231 1.6 3.2 0.00 0.00 0.03 65 1012.0
20260505002724 31 248 1.6 1.6 0.00 0.00 0.03 64 1012.0
20260505002223 31 249 1.6 3.2 0.00 0.00 0.03 63 1012.0
20260505001722 31 226 0.0 3.2 0.00 0.00 0.03 62 1012.0
20260505001224 31 338 0.0 1.6 0.00 0.00 0.03 59 1012.0
20260505000722 31 322 1.6 3.2 0.00 0.00 0.03 58 1012.0
20260505000226 31 329 1.6 3.2 0.00 0.00 0.03 59 1012.0
20260504235722 31 343 1.6 3.2 0.00 0.00 0.03 59 1012.0
20260504235222 31 8 1.6 4.8 0.00 0.00 0.03 59 1012.0
20260504234722 31 349 3.2 4.8 0.00 0.00 0.03 59 1012.0
20260504234222 31 337 3.2 6.4 0.00 0.00 0.03 59 1012.0
20260504233722 31 7 3.2 4.8 0.00 0.00 0.03 59 1012.0
20260504233222 31 20 3.2 4.8 0.00 0.00 0.03 59 1012.0
20260504232723 31 332 3.2 6.4 0.00 0.00 0.03 59 1012.0
20260504232222 31 292 1.6 4.8 0.00 0.00 0.03 58 1012.0
20260504231722 31 318 3.2 6.4 0.00 0.00 0.03 58 1012.0
20260504231222 31 298 4.8 8.0 0.00 0.00 0.03 56 1012.0
20260504230722 32 305 3.2 6.4 0.00 0.00 0.03 56 1012.0
20260504230223 32 304 1.6 4.8 0.00 0.00 0.03 56 1012.0
20260504225722 32 26 3.2 4.8 0.00 0.00 0.03 55 1012.0
20260504225222 32 29 3.2 6.4 0.00 0.00 0.03 56 1012.0
20260504224723 32 324 3.2 6.4 0.00 0.00 0.03 55 1012.0
20260504224222 32 337 4.8 6.4 0.00 0.00 0.03 56 1012.0
20260504223722 32 338 4.8 8.0 0.00 0.00 0.03 56 1012.0
20260504223222 32 4 6.4 9.7 0.00 0.00 0.03 57 1012.0
20260504222722 31 57 6.4 9.7 0.00 0.00 0.03 56 1012.0
20260504222223 32 35 1.6 4.8 0.00 0.00 0.03 56 1012.0
20260504221723 31 356 4.8 8.0 0.00 0.00 0.03 56 1012.0
20260504221222 31 41 8.0 11.3 0.00 0.00 0.03 56 1012.0
20260504220722 32 50 6.4 9.7 0.00 0.00 0.03 57 1012.0
20260504220223 32 20 6.4 9.7 0.00 0.00 0.03 56 1012.0
20260504215722 32 16 6.4 11.3 0.00 0.00 0.03 56 1012.0
20260504215223 32 19 4.8 8.0 0.00 0.00 0.03 56 1012.0
20260504214723 32 356 4.8 9.7 0.00 0.00 0.03 55 1013.0
20260504214222 32 55 4.8 8.0 0.00 0.00 0.03 56 1013.0
20260504213724 31 85 8.0 11.3 0.00 0.00 0.03 56 1013.0
20260504213223 32 359 6.4 11.3 0.00 0.00 0.03 56 1013.0
20260504212722 32 19 6.4 11.3 0.00 0.00 0.03 54 1013.0
20260504212222 32 38 1.6 4.8 0.00 0.00 0.03 54 1013.0
20260504211723 32 0 6.4 9.7 0.00 0.00 0.03 54 1013.0
20260504211222 32 28 4.8 8.0 0.00 0.00 0.03 54 1013.0
20260504210722 32 45 3.2 9.7 0.00 0.00 0.03 54 1013.0
20260504210222 32 342 4.8 11.3 0.00 0.00 0.03 53 1013.0
20260504205722 33 359 4.8 8.0 0.00 0.00 0.03 52 1013.0
20260504205222 33 6 1.6 8.0 0.00 0.00 0.03 52 1013.0
20260504204722 33 7 3.2 6.4 0.00 0.00 0.03 52 1013.0
20260504204222 34 260 1.6 4.8 0.00 0.00 0.03 49 1013.0
20260504203724 33 335 1.6 4.8 0.00 0.00 0.03 51 1013.0
20260504203223 33 332 3.2 6.4 0.00 0.00 0.03 52 1013.0
20260504202722 33 311 4.8 9.7 0.00 0.00 0.03 53 1013.0
20260504202222 32 154 3.2 4.8 0.00 0.00 0.03 56 1013.0
20260504201723 31 217 6.4 12.9 0.00 0.00 0.03 55 1013.0
20260504201222 32 42 9.7 12.9 0.00 0.00 0.03 54 1013.0
20260504200722 32 82 6.4 11.3 0.00 0.00 0.03 55 1013.0
20260504200222 32 16 8.0 12.9 0.00 0.00 0.03 55 1014.0
20260504195722 32 314 6.4 9.7 0.00 0.00 0.03 54 1014.0
20260504195222 32 3 4.8 9.7 0.00 0.00 0.03 55 1014.0
20260504194722 31 301 4.8 9.7 0.00 0.00 0.03 58 1014.0
20260504194223 31 357 4.8 9.7 0.00 0.00 0.03 57 1014.0
20260504193722 31 304 4.8 11.3 0.00 0.00 0.03 57 1014.0
20260504193223 32 280 6.4 12.9 0.00 0.00 0.03 55 1014.0
20260504192725 33 271 3.2 6.4 0.00 0.00 0.03 53 1014.0
20260504192223 33 249 4.8 9.7 0.00 0.00 0.03 52 1014.0
20260504191722 34 339 3.2 8.0 0.00 0.00 0.03 51 1015.0
20260504191223 34 128 1.6 6.4 0.00 0.00 0.03 50 1015.0
20260504190722 33 36 3.2 6.4 0.00 0.00 0.03 51 1015.0
20260504190223 32 284 3.2 9.7 0.00 0.00 0.03 53 1015.0
20260504185723 32 197 1.6 4.8 0.00 0.00 0.03 55 1015.0
20260504185222 32 21 4.8 8.0 0.00 0.00 0.03 54 1015.0
20260504184722 32 78 4.8 8.0 0.00 0.00 0.03 54 1015.0
20260504184222 32 115 3.2 6.4 0.00 0.00 0.03 54 1015.0
20260504183723 32 307 6.4 11.3 0.00 0.00 0.03 55 1015.0
20260504183223 32 231 4.8 11.3 0.00 0.00 0.03 57 1015.0
20260504182723 32 289 4.8 11.3 0.00 0.00 0.03 54 1015.0
20260504182223 33 272 3.2 8.0 0.00 0.00 0.03 54 1015.0
20260504181722 32 42 4.8 12.9 0.00 0.00 0.03 53 1015.0
20260504181223 32 143 3.2 8.0 0.00 0.00 0.03 55 1015.0
20260504180723 32 307 3.2 9.7 0.00 0.00 0.03 56 1015.0
20260504180222 32 336 6.4 9.7 0.00 0.00 0.03 54 1015.0
20260504175723 32 263 3.2 8.0 0.00 0.00 0.03 53 1016.0
20260504174723 32 215 3.2 6.4 0.00 0.00 0.03 57 1016.0
20260504174222 31 225 3.2 6.4 0.00 0.00 0.03 57 1016.0
20260504173723 31 229 3.2 8.0 0.00 0.00 0.03 59 1016.0
20260504173222 31 305 4.8 11.3 0.00 0.00 0.03 58 1016.0
20260504172723 31 296 3.2 6.4 0.00 0.00 0.03 57 1016.0
20260504172223 31 74 4.8 11.3 0.00 0.00 0.03 57 1016.0
20260504171723 31 22 4.8 9.7 0.00 0.00 0.03 57 1016.0
20260504171223 31 36 4.8 8.0 0.00 0.00 0.03 57 1016.0
20260504170224 31 349 3.2 6.4 0.00 0.00 0.03 59 1016.0
20260504160222 28 40 4.8 9.7 0.00 0.00 0.03 65 1017.0
20260504150722 27 140 1.6 4.8 0.00 0.00 0.03 72 1017.0
20260504150223 28 7 4.8 6.4 0.00 0.00 0.03 71 1017.0